This is the latest recevied weather packets stored in our database for station/object W4DEX-2. If no packets are shown the sender has not sent any weather packets the latest 10 day(s).
| Time | Temp. | Humidity | Pressure | Rain* | Wind** | Luminosity | Snow |
|---|---|---|---|---|---|---|---|
| 1777261502 | 12.78° C | 71% | 1019 hPa | 0 mm | 3.58 m/s, 168° | - | - |
| 1777261202 | 12.78° C | 71% | 1019.2 hPa | 0 mm | 4.02 m/s, 172° | - | - |
| 1777259702 | 12.78° C | 71% | 1018.7 hPa | 0 mm | 3.58 m/s, 156° | - | - |
| 1777259402 | 12.78° C | 70% | 1018.6 hPa | 0 mm | 3.58 m/s, 167° | - | - |
| 1777258802 | 13.33° C | 70% | 1018.4 hPa | 0 mm | 3.13 m/s, 168° | - | - |
| 1777258502 | 13.33° C | 69% | 1018.5 hPa | 0 mm | 3.58 m/s, 173° | - | - |
| 1777258202 | 13.33° C | 69% | 1018.2 hPa | 0 mm | 4.47 m/s, 164° | - | - |
| 1777257002 | 13.89° C | 68% | 1018.2 hPa | 0 mm | 4.02 m/s, 169° | - | - |
| 1777256702 | 13.89° C | 68% | 1018.3 hPa | 0 mm | 5.81 m/s, 162° | - | - |
| 1777256103 | 13.89° C | 68% | 1018 hPa | 0 mm | 4.02 m/s, 179° | - | - |
| 1777255802 | 14.44° C | 68% | 1018 hPa | 0 mm | 3.58 m/s, 180° | - | - |
| 1777255502 | 14.44° C | 67% | 1018 hPa | 0 mm | 4.02 m/s, 166° | - | - |
| 1777254602 | 14.44° C | 68% | 1017.7 hPa | 0 mm | 4.02 m/s, 170° | - | - |
| 1777254302 | 14.44° C | 68% | 1017.7 hPa | 0 mm | 6.26 m/s, 153° | - | - |
| 1777254002 | 14.44° C | 68% | 1017.4 hPa | 0 mm | 2.68 m/s, 163° | - | - |
| 1777253402 | 15° C | 68% | 1017.4 hPa | 0 mm | 3.13 m/s, 171° | - | - |
| 1777253102 | 15° C | 67% | 1017.3 hPa | 0 mm | 4.02 m/s, 173° | - | - |
| 1777252202 | 15° C | 67% | 1016.9 hPa | 0 mm | 3.58 m/s, 174° | - | - |
| 1777251902 | 15.56° C | 66% | 1017 hPa | 0 mm | 3.58 m/s, 166° | - | - |
| 1777251603 | 15.56° C | 66% | 1016.9 hPa | 0 mm | 2.68 m/s, 161° | - | - |
| 1777251302 | 15.56° C | 66% | 1016.9 hPa | 0 mm | 4.02 m/s, 177° | - | - |
| 1777251003 | 15.56° C | 66% | 1016.4 hPa | 0 mm | 4.02 m/s, 171° | - | - |
| 1777249803 | 16.11° C | 64% | 1016 hPa | 0 mm | 5.36 m/s, 167° | - | - |
| 1777249502 | 16.11° C | 65% | 1015.9 hPa | 0 mm | 4.02 m/s, 175° | - | - |
| 1777248903 | 16.11° C | 64% | 1015.9 hPa | 0 mm | 4.92 m/s, 173° | - | - |
* Rain latest hour (hover to see other rain measurements)
** Current wind speed in m/s (hover to see current wind gust speed)